{"data":{"norad_id":65568,"epoch":"2026-05-25T02:37:11.443872Z","epoch_age_seconds":62232,"freshness":"FRESH","line1":"1 65568U 25203D   26145.10916023  .00000080  00000+0  61696-4 0  9991","line2":"2 65568  81.3035  32.1091 0007206 251.6600 108.3772 13.83431346 35500","mean_motion":13.83431346,"eccentricity":0.0007206,"inclination_deg":81.3035,"raan_deg":32.1091,"arg_perigee_deg":251.66,"mean_anomaly_deg":108.3772,"bstar":6.1696e-5,"rev_number":3550,"period_min":104.08901057241,"perigee_km":946.45943731461,"apogee_km":957.02325798924,"semimajor_km":7329.8783476519,"source":"CELESTRAK","updated_at":"2026-05-25T13:38:25.167422Z"}}